NOAA 16 DEB, 41424

Orbit data source: Space-Track

NOAA 16 DEB, 41424 is space debris in SSO originally from a launch on Thu, 21 Sep 2000 UTC launched from the Air Force Western Test Range (AFWTR). Debris objects in space refer to the collection of defunct objects orbiting the Earth. Examples of debris include non-operational satellites, rocket bodies, and fragments generated from explosions, collisions, or faulty payload assembly.

Loading next visibility...
Identifier
41424, 2000-055LD
Orbit
SSO
Country
Flag of USUS
Related business
Manufacturer
Unknown
Mission
Spacecraft
Bus & Motor
Unknown
Mass
Unknown
Launch date (UTC)
2000-09-21 (25 years ago)
Launch vehicle
Unknown
Launch site
Air Force Western Test Range (AFWTR)
Object type
Payload
Rocket body
Debris
Shape & HBR
Unknown shape, 0.1 m
Radar Cross Section
Small (<0.1 m²)

Expand to show TLE details & history
Last TLE update: 3 days ago

TLE from 3 days ago
0 NOAA 16 DEB
1 41424U 00055LD  25306.13814367  .00006316  00000-0  21177-2 0  9990
2 41424  98.9472  88.6781 0023501 108.1630 252.2117 14.37479174502176
Epoch: 2025-11-02T03:18Z
TLE epoch observation values (Epoch: 2025-11-02T03:18:55.613Z)
Latitude
0.00002°
Longitude
-2.7118°
Altitude
774.937 km
Speed
7.464 km/s
True Right ascension
05h 54m 42s
True Declination
0° 00' 00"
Sunlit
Object was in full shadow at epoch
Visualization orbit readout
Latitude
Unknown
Longitude
Unknown
Altitude
Unknown
Speed
Unknown
Apparent Right ascension
Unknown
Apparent Declination
Unknown
Sunlit
N/A
Visualization observer readout
Local Sidereal Time
13:33:25
Azimuth
Unknown
Elevation
Unknown
Doppler factor
Unknown
Orbital elements
Apogee altitude
780.771 km
Perigee altitude
747.202 km
Semi-major axis
7,142.123 km
Eccentricity
0.00235
Inclination
98.9472°
RAAN
88.6781°
Arg. of periapsis
108.163°
True anomaly
251.9555°
Mean anomaly
252.2117°
Eccentric anomaly
252.08358°
Mean motion
3.59585 °/min
Orbital period
100.12 mins
BSTAR
0.0021177
Loading maneuver chart data...
Computing Atmospheric mass density...
Loading historical data...
Loading historical data...
Loading historical data...
Loading historical data...
Loading historical data...
Loading historical data...
Loading historical data...

Documentation

Showing up to 5 results
|